Location: Amsterdam
(30.7274°N, 84.4357°W)
Time: 18:26:08
(UTC+00:00)

Altair - Pass Details

Date: 13 August 2024
Orbit: 1501 x 1682 km, 47.2° (Epoch: 07 September)

Event Time Altitude Azimuth Distance (km) Brightness Sun altitude
Rises 23:57:15 0° 308° (NW) 4,733 11.5 4.3°
Reaches altitude 10° 00:00:21 10° 308° (NW) 3,726 11.0 3.7°
Maximum altitude 00:09:44 85° 222° (SW) 1,520 7.7 1.7°
Drops below altitude 10° 00:18:54 10° 134° (SE) 3,642 8.9 -0.1°
Sets 00:21:53 0° 134° (SE) 4,622 9.4 -0.8°
